Погода в Моле

Бельгия     51°11′29″N   5°07′00″E
темп.,
°C
ветер,
м/с
пор.,
м/с
влажн.,
%
обл.,
%
осадки,
мм/ч
давл.,
гПа
погр.,
м
4 декабря, сб
сб401:00+4ююз51090100 0.1 1000464
04:00+4ю269373 0.1 998311
07:00+3ююв249463 0.1 997152
10:00+4ююв2493100 0.0 996119
13:00+6юз2494100 2.1 994251
16:00+6зсз51190100 6.4 9951067
19:00+5зюз5128299 6.6 998611
22:00+4юз6138499 0.1 999526
5 декабря, вс
вс501:00+3юз5138679 0.1 999493
04:00+2ююз5128948 0.0 998432
07:00+3ююз61197100 0.3 998738
10:00+4ююз4696100 0.5 1000441
13:00+4ю3496100 0.7 1002415
16:00+4юв249296 0.0 1004275
19:00+3вюв2692100 0.1 1007274
22:00+4в1193100 0.0 101066
6 декабря, пн
пн601:00+4в2392100 0.0 101297
04:00+3юв249349 0.0 101399
07:00+2юв35935 0.1 1013108
10:00+2ююв38895 0.0 1014240
13:00+5ю51084100 0.0 1012679
16:00+5ююз71380100 0.0 1008813
19:00+3ю81497100 1.5 10051007
22:00+6з91679100 3.1 10031391
7 декабря, вт
вт701:00+5з7147655 3.3 1007883
04:00+4з513806 0.3 1009654
07:00+3зюз410885 0.3 1011326
10:00+2юз49895 0.0 1012283
13:00+5ююз46754 0.0 1011460
16:00+4ю488036 0.0 1008378
19:00+2ююв51286100 0.0 1005439
22:00+2юв71582100 0.1 1002615
8 декабря, ср
ср801:00+1юв61594100 2.1 999762
04:00+1ююв51398100 5.4 998627
07:00+3ююз41096100 6.1 998476
10:00+3ю59925 0.0 1000467
13:00+4ю36858 0.0 1000567
16:00+3ю3791100 0.0 1001328
19:00+3ююв379550 0.0 1002320
22:00+3ююв3687100 0.0 1004556